This is the latest recevied weather packets stored in our database for station/object K3JSE-4. If no packets are shown the sender has not sent any weather packets the latest 10 day(s).
| Time | Temp. | Humidity | Pressure | Rain* | Wind** | Luminosity | Snow |
|---|---|---|---|---|---|---|---|
| 1777566644 | 13.89° C | 72% | 1008.9 hPa | 0 mm | - | - | - |
| 1777566343 | 13.89° C | 70% | 1009 hPa | 0 mm | - | - | - |
| 1777566043 | 13.89° C | 70% | 1009 hPa | 0 mm | - | - | - |
| 1777565743 | 13.89° C | 70% | 1009.2 hPa | 0 mm | - | - | - |
| 1777565443 | 13.89° C | 69% | 1009 hPa | 0 mm | - | - | - |
| 1777565143 | 13.89° C | 71% | 1008.9 hPa | 0 mm | - | - | - |
| 1777564843 | 13.89° C | 69% | 1009.1 hPa | 0 mm | - | - | - |
| 1777564543 | 13.89° C | 70% | 1009 hPa | 0 mm | - | - | - |
| 1777564243 | 13.89° C | 71% | 1009.2 hPa | 0 mm | - | - | - |
| 1777563943 | 13.33° C | 72% | 1009.1 hPa | 0 mm | - | - | - |
| 1777563643 | 13.33° C | 76% | 1009.3 hPa | 0 mm | - | - | - |
| 1777563343 | 13.33° C | 73% | 1009.3 hPa | 0 mm | - | - | - |
| 1777563043 | 12.78° C | 73% | 1009.4 hPa | 0 mm | - | - | - |
| 1777562743 | 12.78° C | 76% | 1009.5 hPa | 0 mm | - | - | - |
| 1777562443 | 12.78° C | 77% | 1009.7 hPa | 0 mm | - | - | - |
| 1777562143 | 12.78° C | 78% | 1009.5 hPa | 0 mm | - | - | - |
| 1777561843 | 12.78° C | 77% | 1009.3 hPa | 0 mm | - | - | - |
| 1777561543 | 12.78° C | 76% | 1009.6 hPa | 0 mm | - | - | - |
| 1777561243 | 12.22° C | 81% | 1009.7 hPa | 0 mm | - | - | - |
| 1777560943 | 12.22° C | 79% | 1009.5 hPa | 0 mm | - | - | - |
| 1777560643 | 12.22° C | 82% | 1009.6 hPa | 0 mm | - | - | - |
| 1777560343 | 11.67° C | 80% | 1009.6 hPa | 0 mm | - | - | - |
| 1777560043 | 11.67° C | 80% | 1009.6 hPa | 0 mm | - | - | - |
| 1777559743 | 11.67° C | 81% | 1009.5 hPa | 0 mm | - | - | - |
| 1777559443 | 12.22° C | 81% | 1009.5 hPa | 0 mm | - | - | - |
* Rain latest hour (hover to see other rain measurements)
** Current wind speed in m/s (hover to see current wind gust speed)